Weather History for Petersburg, WV

Change the Weather History Date:

Sunday, January 5, 2014

  Actual Average (KEKN) Record (KEKN)
Temperature  
Mean Temperature 28 °F 29 °F  
Max Temperature 37 °F 39 °F 67 °F (2004)
Min Temperature 20 °F 19 °F -14 °F (1919)
Degree Days  
Heating Degree Days 36 36  
Month to date heating degree days 180  
Since 1 July heating degree days 2471  
Cooling Degree Days 0 0  
Month to date cooling degree days 0  
Year to date cooling degree days 0  
Moisture  
Dew Point 25 °F    
Average Humidity 84    
Maximum Humidity 96    
Minimum Humidity 69    
Precipitation  
Precipitation 0.00 in 0.11 in 0.97 in (1949)
Month to date precipitation 0.50  
Year to date precipitation 0.50  
Snow  
Snow 0.00 in - - ()
Month to date snowfall  
Since 1 September snowfall  
Snow Depth -    
Sea Level Pressure  
Sea Level Pressure 30.01 in    
Wind  
Wind Speed 0 mph (North)    
Max Wind Speed 0 mph    
Max Gust Speed -    
Visibility 9 miles    
Events      
T = Trace of Precipitation, MM = Missing Value Source: NWS Daily Summary

Daily Weather History Graph

Daily Weather History Graph

Search for Another Location

Airport:

Trip Planner

Search our weather history database for the weather conditions in past years. The results will help you decide how hot, cold, wet, or windy it might be!

Date:

Astronomy

Jan. 05, 2014 Rise Set
Actual Time 7:35 AM EST 5:08 PM EST
Civil Twilight 7:06 AM EST 5:38 PM EST
Nautical Twilight 6:32 AM EST 6:11 PM EST
Astronomical Twilight 6:00 AM EST 6:43 PM EST
Moon 10:18 AM EST (1/5) 10:31 PM EST (1/5)
Length of Visible Light 10h 32m
Length of Day
9h 32m
Waxing Crescent, 24% of the Moon is Illuminated
Jan 5
Waxing Crescent
Jan 7
First Quarter
Jan 15
Full
Jan 24
Last Quarter
Jan 30
New

Hourly Weather History & Observations

Time (EST) Temp. Dew Point Humidity Pressure Visibility Wind Dir Wind Speed Gust Speed Precip Events Conditions
12:15 AM 21.9 °F 16.2 °F 78% 30.19 in 10.0 mi Calm Calm - N/A   Clear
12:35 AM 21.9 °F 17.6 °F 83% 30.19 in 10.0 mi Calm Calm - N/A   Clear
12:55 AM 21.2 °F 16.2 °F 81% 30.18 in 10.0 mi Calm Calm - N/A   Clear
1:15 AM 21.2 °F 16.7 °F 83% 30.18 in 10.0 mi Calm Calm - N/A   Clear
1:35 AM 21.4 °F 17.8 °F 86% 30.19 in 10.0 mi Calm Calm - N/A   Clear
1:55 AM 20.8 °F 17.4 °F 87% 30.19 in 10.0 mi Calm Calm - N/A   Clear
2:15 AM 21.7 °F 18.3 °F 87% 30.20 in 10.0 mi Calm Calm - N/A   Clear
2:35 AM 21.2 °F 17.8 °F 87% 30.20 in 10.0 mi Calm Calm - N/A   Clear
2:55 AM 20.8 °F 17.8 °F 88% 30.21 in 10.0 mi Calm Calm - N/A   Clear
3:15 AM 20.3 °F 17.4 °F 89% 30.21 in 10.0 mi Calm Calm - N/A   Clear
3:35 AM 21.2 °F 18.3 °F 89% 30.21 in 10.0 mi Calm Calm - N/A   Clear
3:55 AM 20.8 °F 18.1 °F 89% 30.20 in 10.0 mi Calm Calm - N/A   Clear
4:15 AM 20.8 °F 18.1 °F 89% 30.19 in 10.0 mi Calm Calm - N/A   Clear
4:35 AM 20.7 °F 18.1 °F 90% 30.18 in 10.0 mi Calm Calm - N/A   Clear
4:55 AM 21.2 °F 18.9 °F 91% 30.18 in 10.0 mi Calm Calm - N/A   Clear
5:15 AM 20.5 °F 18.0 °F 90% 30.18 in 10.0 mi Calm Calm - N/A   Clear
5:35 AM 20.3 °F 18.1 °F 91% 30.18 in 10.0 mi Calm Calm - N/A   Clear
5:55 AM 20.7 °F 18.3 °F 91% 30.18 in 10.0 mi Calm Calm - N/A   Clear
6:15 AM 20.7 °F 18.3 °F 91% 30.18 in 10.0 mi Calm Calm - N/A   Clear
6:35 AM 20.1 °F 18.1 °F 92% 30.18 in 10.0 mi Calm Calm - N/A   Clear
6:55 AM 20.7 °F 18.3 °F 91% 30.18 in 10.0 mi Calm Calm - N/A   Clear
7:15 AM 20.8 °F 18.5 °F 91% 30.18 in 10.0 mi Calm Calm - N/A   Clear
7:35 AM 20.7 °F 18.3 °F 91% 30.18 in 10.0 mi Calm Calm - N/A   Clear
7:55 AM 21.0 °F 18.5 °F 90% 30.17 in 10.0 mi Calm Calm - N/A   Clear
8:15 AM 21.7 °F 19.4 °F 91% 30.18 in 10.0 mi Calm Calm - N/A   Clear
8:35 AM 22.8 °F 19.9 °F 89% 30.18 in 10.0 mi Calm Calm - N/A   Clear
8:55 AM 23.5 °F 20.7 °F 89% 30.17 in 10.0 mi Calm Calm - N/A   Clear
9:15 AM 24.4 °F 21.2 °F 87% 30.16 in 10.0 mi Calm Calm - N/A   Mostly Cloudy
9:35 AM 25.7 °F 21.9 °F 86% 30.16 in 10.0 mi Calm Calm - N/A   Overcast
9:55 AM 28.2 °F 22.8 °F 80% 30.14 in 10.0 mi Calm Calm - N/A   Overcast
10:15 AM 29.1 °F 23.5 °F 80% 30.13 in 10.0 mi Calm Calm - N/A   Overcast
10:35 AM 30.2 °F 23.7 °F 77% 30.14 in 10.0 mi Calm Calm - N/A   Overcast
10:55 AM 31.6 °F 24.4 °F 75% 30.13 in 10.0 mi Calm Calm - N/A   Overcast
11:15 AM 32.4 °F 25.5 °F 76% 30.11 in 10.0 mi Calm Calm - N/A   Overcast
11:35 AM 32.9 °F 25.9 °F 75% 30.09 in 10.0 mi Calm Calm - N/A   Overcast
11:55 AM 34.2 °F 26.6 °F 74% 30.07 in 10.0 mi Calm Calm - N/A   Overcast
12:15 PM 34.0 °F 26.6 °F 74% 30.05 in 10.0 mi Calm Calm - N/A   Overcast
12:35 PM 34.9 °F 26.6 °F 72% 30.03 in 10.0 mi Calm Calm - N/A   Overcast
12:55 PM 35.4 °F 26.6 °F 70% 30.02 in 10.0 mi Calm Calm - N/A   Overcast
1:15 PM 36.1 °F 26.8 °F 69% 30.01 in 10.0 mi Calm Calm - N/A   Overcast
1:35 PM 36.1 °F 27.1 °F 70% 30.00 in 10.0 mi Calm Calm - N/A   Overcast
1:55 PM 36.1 °F 27.1 °F 70% 30.00 in 10.0 mi Calm Calm - N/A   Overcast
2:15 PM 36.1 °F 27.1 °F 70% 29.98 in 10.0 mi Calm Calm - N/A   Overcast
2:35 PM 36.7 °F 28.0 °F 71% 29.97 in 10.0 mi Calm Calm - N/A   Overcast
2:55 PM 36.9 °F 27.5 °F 69% 29.97 in 10.0 mi Calm Calm - N/A   Overcast
3:15 PM 37.4 °F 28.0 °F 69% 29.95 in 10.0 mi Calm Calm - N/A   Overcast
3:35 PM 37.4 °F 28.4 °F 70% 29.94 in 10.0 mi Calm Calm - N/A   Overcast
3:55 PM 37.4 °F 28.0 °F 69% 29.94 in 7.0 mi Calm Calm - N/A   Overcast
4:15 PM 36.5 °F 28.6 °F 73% 29.93 in 4.0 mi Calm Calm - N/A   Overcast
4:35 PM 36.1 °F 29.8 °F 78% 29.92 in 10.0 mi Calm Calm - N/A   Overcast
4:55 PM 35.6 °F 31.5 °F 85% 29.90 in 7.0 mi Calm Calm - N/A   Overcast
5:15 PM 35.2 °F 32.0 °F 88% 29.89 in 7.0 mi Calm Calm - N/A   Overcast
5:35 PM 35.1 °F 32.4 °F 90% 29.89 in 7.0 mi Calm Calm - N/A   Overcast
5:55 PM 35.1 °F 32.5 °F 91% 29.88 in 7.0 mi Calm Calm - N/A   Overcast
6:15 PM 34.9 °F 32.2 °F 90% 29.87 in 7.0 mi Calm Calm - N/A   Overcast
6:35 PM 34.7 °F 32.0 °F 90% 29.85 in 7.0 mi Calm Calm - N/A   Overcast
6:55 PM 34.3 °F 32.0 °F 91% 29.84 in 4.0 mi Calm Calm - N/A   Overcast
7:15 PM 34.0 °F 32.0 °F 92% 29.82 in 5.0 mi Calm Calm - N/A   Overcast
7:35 PM 34.0 °F 32.0 °F 92% 29.81 in 5.0 mi Calm Calm - N/A   Overcast
7:55 PM 34.5 °F 32.2 °F 91% 29.80 in 7.0 mi Calm Calm - N/A   Overcast
8:15 PM 35.1 °F 32.5 °F 91% 29.78 in 5.0 mi Calm Calm - N/A   Overcast
8:35 PM 35.4 °F 32.9 °F 91% 29.77 in 7.0 mi Calm Calm - N/A   Overcast
8:55 PM 35.8 °F 33.1 °F 90% 29.74 in 7.0 mi Calm Calm - N/A   Overcast
9:15 PM 35.6 °F 32.9 °F 90% 29.73 in 7.0 mi Calm Calm - N/A   Scattered Clouds
9:35 PM 34.9 °F 32.7 °F 92% 29.70 in 5.0 mi Calm Calm - N/A   Scattered Clouds
9:55 PM 35.1 °F 32.9 °F 92% 29.68 in 5.0 mi Calm Calm - N/A   Scattered Clouds
10:15 PM 34.3 °F 32.2 °F 92% 29.65 in 5.0 mi Calm Calm - N/A   Scattered Clouds
10:35 PM 34.0 °F 32.4 °F 94% 29.65 in 4.0 mi Calm Calm - N/A   Scattered Clouds
10:55 PM 33.1 °F 32.0 °F 96% 29.63 in 4.0 mi Calm Calm - N/A   Clear
11:15 PM 34.0 °F 32.0 °F 92% 29.60 in 7.0 mi Calm Calm - N/A   Clear
11:35 PM 35.6 °F 31.6 °F 85% 29.60 in 10.0 mi Calm Calm - N/A   Clear
11:55 PM 35.8 °F 32.0 °F 86% 29.58 in 10.0 mi Calm Calm - N/A   Clear